Location: Mount Cross
(36.6390°N, 79.4878°W)
Time: 17:23:52
(UTC+00:00)

Courier 1B Rocket - Pass Details

Date: 23 March 2023
Orbit: 920 x 1202 km, 28.2° (Epoch: 08 June)

Event Time Altitude Azimuth Distance (km) Brightness Sun altitude
Rises 04:05:00 0° 253° (WSW) 3,664 - -48.1°
Reaches altitude 10° 04:07:52 10° 246° (WSW) 2,681 - -48.4°
Maximum altitude 04:13:46 39° 179° (S) 1,354 - -49.0°
Drops below altitude 10° 04:19:30 10° 112° (ESE) 2,604 - -49.5°
Sets 04:22:14 0° 105° (ESE) 3,547 - -49.7°
